This is the latest recevied weather packets stored in our database for station/object SR9NLI. If no packets are shown the sender has not sent any weather packets the latest 1 day(s).
| Time | Temp. | Humidity | Pressure | Rain* | Wind** | Luminosity | Snow |
|---|---|---|---|---|---|---|---|
| 1836274804 | 11.11° C | 100% | 966.8 hPa | - | 0.45 m/s, 236° | - | - |
| 1836274743 | 11.11° C | 100% | 966.8 hPa | - | 0.45 m/s, 214° | - | - |
| 1836274623 | 11.11° C | 100% | 966.9 hPa | - | 0.45 m/s, 0° | - | - |
| 1836274503 | 11.11° C | 100% | 966.8 hPa | - | 0.45 m/s, 0° | - | - |
| 1836274474 | 11.11° C | 100% | 966.8 hPa | - | 0.89 m/s, 326° | - | - |
| 1836274444 | 11.11° C | 100% | 966.9 hPa | - | 0.89 m/s, 350° | - | - |
| 1836274415 | 11.11° C | 100% | 966.8 hPa | - | 0.89 m/s, 325° | - | - |
| 1836274383 | 11.67° C | 100% | 966.9 hPa | - | 0.89 m/s, 348° | - | - |
| 1836274354 | 11.67° C | 100% | 966.7 hPa | - | 0.89 m/s, 323° | - | - |
| 1836274263 | 11.67° C | 100% | 966.9 hPa | - | 0.89 m/s, 333° | - | - |
| 1836274234 | 11.67° C | 100% | 966.7 hPa | - | 0.89 m/s, 312° | - | - |
| 1836274143 | 11.67° C | 100% | 966.9 hPa | - | 0.89 m/s, 324° | - | - |
| 1836274114 | 11.67° C | 100% | 966.7 hPa | - | 0.45 m/s, 273° | - | - |
| 1836274023 | 11.67° C | 100% | 966.9 hPa | - | 0.89 m/s, 333° | - | - |
| 1836273902 | 11.67° C | 100% | 966.9 hPa | - | 0.89 m/s, 334° | - | - |
| 1778031375 | 15° C | 100% | 948.3 hPa | - | 1.34 m/s, 195° | - | - |
| 1778031312 | 15° C | 100% | 948.4 hPa | - | 0.89 m/s, 213° | - | - |
| 1778031190 | 15° C | 100% | 948.1 hPa | - | 1.34 m/s, 186° | - | - |
| 1778031066 | 15° C | 100% | 948.1 hPa | - | 1.79 m/s, 184° | - | - |
| 1778031006 | 15° C | 100% | 948.1 hPa | - | 1.79 m/s, 187° | - | - |
| 1778030944 | 15° C | 100% | 948.1 hPa | - | 1.79 m/s, 184° | - | - |
| 1778030821 | 15° C | 100% | 948.1 hPa | - | 1.79 m/s, 196° | - | - |
| 1778030698 | 15° C | 100% | 948 hPa | - | 1.79 m/s, 199° | - | - |
| 1778030637 | 15° C | 100% | 947.8 hPa | - | 2.24 m/s, 192° | - | - |
| 1778030575 | 15° C | 100% | 947.8 hPa | - | 2.24 m/s, 189° | - | - |
* Rain since midnight (hover to see other rain measurements)
** Current wind speed in m/s (hover to see current wind gust speed)